STARLINK-3191 (49770 NORAD) Tracking and Keplerian Element Data

This shows tracking and keplerian element data for the satellite.

Feedback or suggestion? Click here.




ElementValue
Catalog49770
NameSTARLINK-3191
Epoch Orbit2713
Epoch Day140.91667824
Epoch Year2022
RAAN253.5763
Inclination53.217
Eccentricity0.000211
Argument of Perigee32.3038
Mean Anonmoly190.7525
Mean Motion15.08837792
Decay Rate-5.199E-05
L11 49770U 21115AY 22140.91667824 -.00005199 00000+0 -30880-3 0 9996
L22 49770 53.2170 253.5763 0002110 32.3038 190.7525 15.08837792 27133

Live tracking and technical data element details for STARLINK-3191 (NORAD 49770). STARLINK-3191 can be tracked NOW for your location showing map with azimuth and elevation plus other details from your city location.

Track the satellite on the map from your city or location and see movement details for azimuth, elevation, latitude, longitude, range, height, and movement on the map or in text.







IsCatalogInMostPopularTable: catalog: 49770, numindb: 24
Update: records affected: 1



GetName: 49770 STARLINK-3191

Hit Count: updated at: Sun, 22 May 2022 03:41:48 GMT